Tucson, AZ

12:33 AM MST on December 14, 2017 (GMT -0700)
Tucson International

Weather History for KTUS - May, 2014

Change the Weather History Date:

Wednesday, May 7, 2014

  Actual Average Record
Temperature  
Mean Temperature 66 °F 73 °F  
Max Temperature 75 °F 89 °F 105 °F (1989)
Min Temperature 57 °F 58 °F 37 °F (1915)
Degree Days  
Heating Degree Days 0 0  
Month to date heating degree days 0 3  
Since 1 July heating degree days 899 1509  
Cooling Degree Days 1 9  
Month to date cooling degree days 67 55  
Year to date cooling degree days 279 209  
Growing Degree Days 16 (Base 50)    
Moisture  
Dew Point 29 °F    
Average Humidity 28    
Maximum Humidity 44    
Minimum Humidity 11    
Precipitation  
Precipitation 0.00 in 0.00 in 0.13 in (1995)
Month to date precipitation 0.00 0.04  
Year to date precipitation 0.61 2.88  
Sea Level Pressure  
Sea Level Pressure 29.78 in    
Wind  
Wind Speed 8 mph (West)    
Max Wind Speed 21 mph    
Max Gust Speed 30 mph    
Visibility 10 miles    
Events      
T = Trace of Precipitation, MM = Missing Value Source: NWS Daily Summary

Daily Weather History Graph

Daily Weather History Graph

Search for Another Location

Airport or City:

Trip Planner

Search our weather history database for the weather conditions in past years. The results will help you decide how hot, cold, wet, or windy it might be!

Date:

Astronomy

May. 07, 2014 Rise Set
Actual Time 5:32 AM MST 7:08 PM MST
Civil Twilight 5:05 AM MST 7:35 PM MST
Nautical Twilight 4:34 AM MST 8:07 PM MST
Astronomical Twilight 4:00 AM MST 8:40 PM MST
Moon 12:40 PM MST (5/7) 1:08 AM MST (5/7)
Length of Visible Light 14h 29m
Length of Day
13h 36m
First Quarter, 56% of the Moon is Illuminated
May 7
First Quarter
May 14
Full
May 21
Last Quarter
May 28
New
Jun 5
First Quarter

Hourly Weather History & Observations

Time (MST) Temp. Dew Point Humidity Pressure Visibility Wind Dir Wind Speed Gust Speed Precip Events Conditions
12:53 AM 63.0 °F 34.0 °F 34% 29.68 in 10.0 mi Calm Calm - N/A   Clear
1:53 AM 62.1 °F 35.1 °F 37% 29.67 in 10.0 mi Calm Calm - N/A   Clear
2:53 AM 61.0 °F 35.1 °F 38% 29.67 in 10.0 mi SW 3.5 mph - N/A   Clear
3:53 AM 59.0 °F 34.0 °F 39% 29.68 in 10.0 mi SE 3.5 mph - N/A   Clear
4:53 AM 59.0 °F 36.0 °F 42% 29.69 in 10.0 mi SSW 5.8 mph - N/A   Clear
5:53 AM 59.0 °F 37.0 °F 44% 29.71 in 10.0 mi Variable 3.5 mph - N/A   Clear
6:53 AM 59.0 °F 36.0 °F 42% 29.75 in 10.0 mi North - - N/A   Clear
7:53 AM 60.1 °F 33.1 °F 36% 29.77 in 10.0 mi WNW 9.2 mph - N/A   Clear
8:53 AM 63.0 °F 37.0 °F 38% 29.79 in 10.0 mi WSW 11.5 mph 16.1 mph N/A   Clear
9:53 AM 66.2 °F 33.8 °F 30% 29.90 in 10.0 mi SSW 9.2 mph - N/A   Partly Cloudy
10:53 AM 68.0 °F 34.0 °F 28% 29.81 in 10.0 mi WSW 9.2 mph - N/A   Scattered Clouds
11:53 AM 71.1 °F 26.1 °F 19% 29.81 in 10.0 mi SSW 13.8 mph 24.2 mph N/A   Partly Cloudy
12:53 PM 73.0 °F 26.1 °F 17% 29.81 in 10.0 mi WSW 16.1 mph 25.3 mph N/A   Clear
1:53 PM 73.9 °F 23.0 °F 15% 29.80 in 10.0 mi West 15.0 mph 24.2 mph N/A   Partly Cloudy
2:53 PM 73.9 °F 19.0 °F 13% 29.79 in 10.0 mi NW 11.5 mph - N/A   Clear
3:53 PM 73.0 °F 16.0 °F 11% 29.79 in 10.0 mi NW 11.5 mph - N/A   Clear
4:53 PM 73.0 °F 18.0 °F 12% 29.79 in 10.0 mi WNW 13.8 mph 20.7 mph N/A   Clear
5:53 PM 72.0 °F 21.0 °F 15% 29.79 in 10.0 mi West 11.5 mph 20.7 mph N/A   Clear
6:53 PM 71.1 °F 24.1 °F 17% 29.80 in 10.0 mi NW 8.1 mph - N/A   Clear
7:53 PM 69.1 °F 26.1 °F 20% 29.81 in 10.0 mi WNW 8.1 mph - N/A   Clear
8:53 PM 66.9 °F 26.1 °F 21% 29.83 in 10.0 mi WNW 5.8 mph - N/A   Clear
9:53 PM 66.0 °F 27.0 °F 23% 29.84 in 10.0 mi NW 5.8 mph - N/A   Clear
10:53 PM 64.0 °F 28.9 °F 27% 29.84 in 10.0 mi WNW 4.6 mph - N/A   Clear
11:53 PM 60.1 °F 28.0 °F 30% 29.85 in 10.0 mi WSW 5.8 mph - N/A   Clear